Location: Mohawk View
(42.7837°N, 73.7885°W)
Time: 08:27:38
(UTC+00:00)

Cosmos 292 Rocket - Pass Details

Date: 17 June 2021
Orbit: 674 x 693 km, 74.0° (Epoch: 27 July)

Event Time Altitude Azimuth Distance (km) Brightness Sun altitude
Rises 01:37:09 0° 197° (SSW) 3,050 6.8 -9.5°
Reaches altitude 10° 01:39:27 10° 196° (SSW) 2,136 6.0 -9.8°
Maximum altitude 01:44:16 85° 109° (ESE) 697 3.8 -10.5°
Drops below altitude 10° 01:49:06 10° 21° (NNE) 2,142 6.7 -11.1°
Sets 01:51:25 0° 21° (NNE) 3,059 7.5 -11.4°
